FW2178 Weather Reports


time (UTC)temp
C
wind
direction
speed
KPH
gust
KPH
rain 1hr
cm
rain 24hr
cm
rain mn
cm
humidity
%
barometer
mb
20260503212236 23 112 1.6 3.2 0.00 0.00 0.00 47 1010.5
20260503212226 23 116 1.6 4.8 0.00 0.00 0.00 46 1010.5
20260503211205 23 134 0.0 3.2 0.00 0.00 0.00 48 1010.3
20260503210702 23 142 0.0 3.2 0.00 0.00 0.00 48 1010.6
20260503210202 23 152 0.0 3.2 0.00 0.00 0.00 45 1010.7
20260503205703 23 154 0.0 3.2 0.00 0.00 0.00 46 1010.7
20260503205202 23 166 1.6 1.6 0.00 0.00 0.00 50 1010.7
20260503204703 23 151 0.0 4.8 0.00 0.00 0.00 47 1010.6
20260503204203 23 127 1.6 4.8 0.00 0.00 0.00 45 1010.9
20260503204015 23 162 1.6 4.8 0.00 0.00 0.00 44 1010.8
20260503203203 23 138 0.0 4.8 0.00 0.00 0.00 47 1010.7
20260503202702 23 120 0.0 1.6 0.00 0.00 0.00 46 1010.8
20260503202202 23 147 0.0 3.2 0.00 0.00 0.00 47 1010.8
20260503201702 23 146 1.6 3.2 0.00 0.00 0.00 45 1011.0
20260503201202 23 148 0.0 1.6 0.00 0.00 0.00 47 1011.1
20260503200701 23 161 0.0 3.2 0.00 0.00 0.00 49 1011.2
20260503200202 22 132 0.0 3.2 0.00 0.00 0.00 46 1011.2
20260503195702 22 147 0.0 3.2 0.00 0.00 0.00 46 1011.2
20260503195203 22 149 0.0 3.2 0.00 0.00 0.00 48 1011.5
20260503194955 22 109 1.6 3.2 0.00 0.00 0.00 47 1011.3
20260503194202 22 139 1.6 3.2 0.00 0.00 0.00 46 1011.4
20260503193703 22 82 1.6 1.6 0.00 0.00 0.00 49 1011.5
20260503193202 22 130 0.0 3.2 0.00 0.00 0.00 47 1011.7
20260503192702 22 124 0.0 3.2 0.00 0.00 0.00 51 1011.8
20260503192202 22 153 0.0 6.4 0.00 0.00 0.00 50 1011.7
20260503191958 21 134 0.0 6.4 0.00 0.00 0.00 51 1011.9
20260503191159 21 162 0.0 3.2 0.00 0.00 0.00 53 1011.9
20260503190659 21 153 0.0 3.2 0.00 0.00 0.00 50 1011.8
20260503190156 21 156 0.0 0.0 0.00 0.00 0.00 52 1012.2
20260503185653 21 131 0.0 0.0 0.00 0.00 0.00 53 1011.9
20260503185153 21 88 0.0 0.0 0.00 0.00 0.00 52 1011.9
20260503184651 21 103 0.0 0.0 0.00 0.00 0.00 57 1012.1
20260503184150 21 151 0.0 0.0 0.00 0.00 0.00 57 1012.0
20260503183651 20 110 0.0 0.0 0.00 0.00 0.00 54 1012.2
20260503183149 20 131 0.0 0.0 0.00 0.00 0.00 58 1012.2
20260503182657 20 137 0.0 0.0 0.00 0.00 0.00 56 1012.4
20260503182152 20 129 0.0 0.0 0.00 0.00 0.00 57 1012.3
20260503181651 20 157 0.0 0.0 0.00 0.00 0.00 58 1012.3
20260503181149 20 159 0.0 0.0 0.00 0.00 0.00 59 1012.2
20260503180651 20 154 0.0 0.0 0.00 0.00 0.00 57 1012.4
20260503180150 20 154 0.0 0.0 0.00 0.00 0.00 58 1012.4
20260503175650 20 144 0.0 0.0 0.00 0.00 0.00 57 1012.5
20260503175151 19 151 0.0 0.0 0.00 0.00 0.00 58 1012.3
20260503175013 19 156 0.0 0.0 0.00 0.00 0.00 64 1012.5
20260503175007 19 134 0.0 0.0 0.00 0.00 0.00 61 1012.3
20260503173650 19 137 0.0 0.0 0.00 0.00 0.00 57 1012.5
20260503173150 20 154 0.0 0.0 0.00 0.00 0.00 60 1012.5
20260503172648 20 132 0.0 0.0 0.00 0.00 0.00 60 1012.7
20260503172147 19 117 0.0 0.0 0.00 0.00 0.00 58 1012.5
20260503171648 19 129 0.0 0.0 0.00 0.00 0.00 62 1012.5
20260503171145 19 152 0.0 0.0 0.00 0.00 0.00 64 1012.4
20260503170646 19 147 0.0 0.0 0.00 0.00 0.00 66 1012.8
20260503170146 19 147 0.0 0.0 0.00 0.00 0.00 60 1012.6
20260503160146 16 159 0.0 0.0 0.00 0.00 0.00 80 1012.9
20260503150638 12 129 0.0 0.0 0.00 0.00 0.00 91 1012.9
20260503150136 12 129 0.0 0.0 0.00 0.00 0.00 92 1013.0
20260503140137 10 129 0.0 0.0 0.00 0.00 0.00 95 1012.9
20260503131137 9 130 0.0 0.0 0.00 0.00 0.00 95 1012.7
20260503130638 9 131 0.0 0.0 0.00 0.00 0.00 95 1012.7
20260503130137 9 130 0.0 0.0 0.00 0.00 0.00 94 1012.5
20260503120135 9 132 0.0 0.0 0.00 0.00 0.00 93 1012.7
20260503110736 10 132 0.0 0.0 0.00 0.00 0.00 93 1013.1
20260503110717 10 132 0.0 0.0 0.00 0.00 0.00 93 1013.0
20260503090136 11 157 0.0 0.0 0.00 0.00 0.00 84 1013.0
20260503081136 11 157 0.0 0.0 0.00 0.00 0.00 83 1013.4
20260503080635 11 157 0.0 0.0 0.00 0.00 0.00 83 1012.9
20260503080150 12 157 0.0 0.0 0.00 0.00 0.00 83 1013.2
20260503072635 12 157 0.0 0.0 0.00 0.00 0.00 83 1013.1
20260503072135 12 157 0.0 0.0 0.00 0.00 0.00 84 1013.1
20260503071636 12 157 0.0 0.0 0.00 0.00 0.00 84 1012.9
20260503071136 12 157 0.0 0.0 0.00 0.00 0.00 83 1013.1
20260503070636 12 158 0.0 0.0 0.00 0.00 0.00 80 1012.9
20260503070137 12 158 0.0 0.0 0.00 0.00 0.00 80 1013.0
20260503060204 13 158 0.0 0.0 0.00 0.00 0.00 76 1012.9
20260503054635 13 158 0.0 0.0 0.00 0.00 0.00 75 1013.1
20260503054436 13 158 0.0 0.0 0.00 0.00 0.00 76 1012.9
20260503053636 13 158 0.0 0.0 0.00 0.00 0.00 76 1013.0
20260503053135 13 158 0.0 0.0 0.00 0.00 0.00 75 1013.0
20260503052636 14 158 0.0 0.0 0.00 0.00 0.00 76 1012.9
20260503052135 14 158 0.0 0.0 0.00 0.00 0.00 75 1013.0
20260503051700 14 158 0.0 0.0 0.00 0.00 0.00 75 1013.2
20260503050636 14 158 0.0 1.6 0.00 0.00 0.00 73 1013.0
20260503050135 14 158 0.0 1.6 0.00 0.00 0.00 74 1013.1
20260503045636 14 158 0.0 1.6 0.00 0.00 0.00 72 1013.0
20260503045505 15 158 0.0 1.6 0.00 0.00 0.00 76 1013.0
20260503045455 14 158 0.0 1.6 0.00 0.00 0.00 76 1012.7
20260503044135 15 158 0.0 1.6 0.00 0.00 0.00 75 1012.7
20260503043636 15 153 0.0 0.0 0.00 0.00 0.00 75 1012.5
20260503043134 15 153 0.0 0.0 0.00 0.00 0.00 77 1012.5
20260503042946 15 153 0.0 0.0 0.00 0.00 0.00 78 1012.5
20260503042135 15 153 0.0 0.0 0.00 0.00 0.00 73 1012.5
20260503041636 15 153 0.0 1.6 0.00 0.00 0.00 76 1012.4
20260503041135 15 153 0.0 1.6 0.00 0.00 0.00 72 1012.1
20260503040636 15 141 0.0 0.0 0.00 0.00 0.00 74 1012.2
20260503040135 15 156 0.0 0.0 0.00 0.00 0.00 75 1012.4
20260503035939 15 156 0.0 0.0 0.00 0.00 0.00 73 1012.0
20260503035432 15 156 0.0 0.0 0.00 0.00 0.00 74 1012.2
20260503034635 15 155 0.0 1.6 0.00 0.00 0.00 74 1012.1
20260503034134 16 155 0.0 1.6 0.00 0.00 0.00 72 1012.0
20260503033636 16 154 0.0 1.6 0.00 0.00 0.00 72 1012.1
20260503033427 16 144 0.0 1.6 0.00 0.00 0.00 67 1011.8
20260503032636 16 147 0.0 1.6 0.00 0.00 0.00 71 1011.7
20260503032136 16 147 0.0 1.6 0.00 0.00 0.00 70 1011.7
20260503031636 16 147 0.0 1.6 0.00 0.00 0.00 71 1011.9
20260503031134 16 147 0.0 1.6 0.00 0.00 0.00 68 1011.7
20260503030635 16 147 0.0 1.6 0.00 0.00 0.00 71 1011.7
20260503030135 16 147 0.0 1.6 0.00 0.00 0.00 72 1011.7
20260503025940 16 147 0.0 1.6 0.00 0.00 0.00 73 1011.5
20260503025134 16 147 0.0 0.0 0.00 0.00 0.00 73 1011.7
20260503024926 16 147 0.0 0.0 0.00 0.00 0.00 70 1011.5
20260503024221 16 147 0.0 1.6 0.00 0.00 0.00 73 1011.5
20260503024201 16 147 0.0 1.6 0.00 0.00 0.00 68 1011.5
20260503023138 17 147 0.0 1.6 0.00 0.00 0.00 70 1011.4
20260503022630 17 146 0.0 1.6 0.00 0.00 0.00 72 1011.5
20260503022129 17 147 0.0 0.0 0.00 0.00 0.00 72 1011.5
20260503021631 17 147 0.0 0.0 0.00 0.00 0.00 73 1011.3
20260503021417 17 146 0.0 0.0 0.00 0.00 0.00 72 1011.4
20260503020630 17 147 0.0 0.0 0.00 0.00 0.00 73 1011.4
20260503020134 17 147 0.0 1.6 0.00 0.00 0.00 72 1011.4
20260503015629 17 145 0.0 1.6 0.00 0.00 0.00 71 1011.6
20260503015417 17 163 1.6 1.6 0.00 0.00 0.00 71 1011.5
20260503014631 18 153 0.0 1.6 0.00 0.00 0.00 73 1011.5
20260503014130 18 152 0.0 0.0 0.00 0.00 0.00 69 1011.6
20260503013629 18 154 0.0 1.6 0.00 0.00 0.00 73 1011.6
20260503013132 18 153 0.0 4.8 0.00 0.00 0.00 67 1011.7
20260503012629 19 154 0.0 4.8 0.00 0.00 0.00 68 1011.9
20260503012419 19 133 0.0 6.4 0.00 0.00 0.00 64 1011.9
20260503011632 19 124 0.0 6.4 0.00 0.00 0.00 63 1011.7
20260503011130 19 169 0.0 4.8 0.00 0.00 0.00 62 1012.0
20260503010927 19 155 0.0 1.6 0.00 0.00 0.00 67 1011.9
20260503010132 19 155 0.0 1.6 0.00 0.00 0.00 65 1011.9
20260503005628 20 148 0.0 1.6 0.00 0.00 0.00 69 1011.8
20260503005418 20 136 0.0 1.6 0.00 0.00 0.00 65 1012.0
20260503004909 20 122 0.0 0.0 0.00 0.00 0.00 60 1011.7
20260503004422 20 134 0.0 0.0 0.00 0.00 0.00 60 1011.7
20260503003629 20 83 0.0 1.6 0.00 0.00 0.00 64 1011.9
20260503003128 20 154 0.0 1.6 0.00 0.00 0.00 67 1012.0
20260503002632 20 140 0.0 1.6 0.00 0.00 0.00 64 1012.0
20260503002129 20 135 0.0 1.6 0.00 0.00 0.00 65 1011.8
20260503001634 20 134 0.0 0.0 0.00 0.00 0.00 62 1011.7
20260503001132 20 147 0.0 0.0 0.00 0.00 0.00 67 1012.0
20260503000910 20 99 0.0 0.0 0.00 0.00 0.00 65 1011.7
20260503000129 20 126 0.0 0.0 0.00 0.00 0.00 62 1011.9
20260502235632 20 131 0.0 0.0 0.00 0.00 0.00 65 1011.9
20260502235129 20 132 0.0 0.0 0.00 0.00 0.00 61 1012.2
20260502234629 20 123 0.0 0.0 0.00 0.00 0.00 60 1011.8
20260502234426 21 129 0.0 0.0 0.00 0.00 0.00 60 1012.3
20260502233629 20 155 0.0 0.0 0.00 0.00 0.00 59 1012.2
20260502233129 21 117 0.0 0.0 0.00 0.00 0.00 62 1012.2
20260502232631 20 68 0.0 0.0 0.00 0.00 0.00 61 1012.3
20260502232130 20 135 0.0 0.0 0.00 0.00 0.00 57 1012.3
20260502231629 20 125 0.0 0.0 0.00 0.00 0.00 59 1012.5
20260502231425 20 115 0.0 0.0 0.00 0.00 0.00 68 1012.5
20260502230628 20 131 0.0 0.0 0.00 0.00 0.00 66 1012.6
20260502230129 20 123 0.0 0.0 0.00 0.00 0.00 62 1012.7
20260502225629 20 68 0.0 0.0 0.00 0.00 0.00 63 1013.0
20260502225130 20 134 0.0 0.0 0.00 0.00 0.00 63 1013.0
20260502224630 21 119 0.0 0.0 0.00 0.00 0.00 60 1013.1
20260502224129 20 162 0.0 0.0 0.00 0.00 0.00 61 1012.9
20260502223629 20 35 0.0 0.0 0.00 0.00 0.00 62 1013.2
20260502223421 20 141 0.0 0.0 0.00 0.00 0.00 63 1012.9
20260502222629 20 138 0.0 0.0 0.00 0.00 0.00 59 1013.1
20260502222129 20 139 0.0 0.0 0.00 0.00 0.00 57 1013.3
20260502221629 20 95 0.0 0.0 0.00 0.00 0.00 60 1013.3
20260502221424 20 125 0.0 0.0 0.00 0.00 0.00 57 1013.4
20260502220629 20 136 0.0 0.0 0.00 0.00 0.00 56 1013.3
20260502220129 20 112 0.0 0.0 0.00 0.00 0.00 57 1013.3
20260502215919 20 141 0.0 0.0 0.00 0.00 0.00 54 1013.4
20260502215129 20 112 0.0 0.0 0.00 0.00 0.00 55 1013.4
20260502214629 20 115 0.0 0.0 0.00 0.00 0.00 55 1013.4
20260502214232 20 134 0.0 0.0 0.00 0.00 0.00 59 1013.6
20260502214201 20 49 0.0 0.0 0.00 0.00 0.00 56 1013.4
20260502213130 20 115 0.0 0.0 0.00 0.00 0.00 54 1013.8
20260502212630 20 129 0.0 0.0 0.00 0.00 0.00 56 1013.7
20260502212440 20 142 0.0 0.0 0.00 0.00 0.00 58 1013.8